This demonstration page uses our WeatherBlox Daily Observations layout. Learn more.

Left ArrowRight Arrow

38.20091, -84.87328

Hourly Observations for August 9, 2017

Temp ( °F °C ) Dew Point ( °F °C ) Humidity (%) Winds ( mph kmh ) Pressure ( in mb ) Visibility ( mi km ) Precip ( " mm )
12:53 am 00:53 Clear 65 18.3 56 13.3 73 73 ENE 6 9 30.14 1021 10 16 0.00 0.00
1:53 am 01:53 Clear 65 18.3 55 12.8 70 70 NE 3 6 30.15 1021 10 16 0.00 0.00
2:53 am 02:53 Clear 62 16.7 55 12.8 78 78 Calm 30.14 1021 10 16 0.00 0.00
3:53 am 03:53 Clear 59 15 55 12.8 87 87 Calm 30.14 1021 10 16 0.00 0.00
4:53 am 04:53 Clear 58 14.4 54 12.2 87 87 Calm 30.15 1021 10 16 0.00 0.00
5:53 am 05:53 Clear 58 14.4 54 12.2 87 87 NNW 3 6 30.16 1021 10 16 0.00 0.00
6:53 am 06:53 Sunny 56 13.3 52 11.1 87 87 Calm 30.17 1022 10 16 0.00 0.00
7:53 am 07:53 Sunny 60 15.6 55 12.8 84 84 Calm 30.18 1022 10 16 0.00 0.00
8:53 am 08:53 Sunny 65 18.3 56 13.3 73 73 ENE 5 7 30.19 1022 10 16 0.00 0.00
9:53 am 09:53 Sunny 71 21.7 57 13.9 61 61 ENE 3 6 30.19 1022 10 16 0.00 0.00
10:53 am 10:53 Sunny 76 24.4 56 13.3 50 50 VRB 3 6 30.18 1022 10 16 0.00 0.00
11:53 am 11:53 Sunny 78 25.6 55 12.8 45 45 VRB 6 9 30.18 1022 10 16 0.00 0.00
12:53 pm 12:53 Sunny 80 26.7 53 11.7 39 39 E 6 9 30.17 1022 10 16 0.00 0.00
1:53 pm 13:53 Sunny 81 27.2 53 11.7 38 38 NE 6 9 30.16 1021 10 16 0.00 0.00
2:53 pm 14:53 Sunny 82 27.8 53 11.7 37 37 ENE 5 7 30.14 1021 10 16 0.00 0.00
3:53 pm 15:53 Sunny 83 28.3 53 11.7 36 36 NE 5 7 30.12 1020 10 16 0.00 0.00
4:53 pm 16:53 Sunny 82 27.8 52 11.1 35 35 E 8 13 30.11 1020 10 16 0.00 0.00
5:53 pm 17:53 Sunny 83 28.3 54 12.2 37 37 E 8 13 30.10 1019 10 16 0.00 0.00
6:53 pm 18:53 Sunny 82 27.8 53 11.7 37 37 Calm 30.10 1019 10 16 0.00 0.00
7:53 pm 19:53 Sunny 80 26.7 54 12.2 41 41 NE 5 7 30.10 1019 10 16 0.00 0.00
8:53 pm 20:53 Clear 77 25 55 12.8 47 47 NNE 5 7 30.10 1019 10 16 0.00 0.00
9:53 pm 21:53 Clear 69 20.6 59 15 70 70 Calm 30.12 1020 10 16 0.00 0.00
10:53 pm 22:53 Clear 69 20.6 58 14.4 68 68 Calm 30.12 1020 10 16 0.00 0.00
11:53 pm 23:53 Clear 69 20.6 57 13.9 66 66 ENE 3 6 30.12 1020 10 16 0.00 0.00

Powered by AerisWeather